Flag for Spain Weather past 2 weeks in Pamplona, Spain

Now
66 °F

Passing clouds.


Feels Like: 66 °F
Forecast: 50 / 63 °F
Wind: 8 mph from South

Location: Pamplona / Noain

Current Time: Apr 25, 2015 at 1:04:03 PM

Latest Report: Apr 25, 2015 at 12:30 PM


Visibility: N/A

Pressure: 29.95 "Hg

Humidity: 52%

Dew point: 48 °F

Location of PamplonaLocation

Historic Weather in Pamplona — Graph

°F

Pamplona temperature yesterday

Maximum temperature yesterday: 73 °F (at 3:30 PM)
Minimum temperature yesterday: 43 °F (at 7:00 AM)
Average temperature yesterday: 60 °F

Past Weeks' High & Low Weather Summary

 TemperatureHumidityPressure
High79 °F (Apr 14, 3:30 PM)100% (Apr 11, 5:30 AM)30.45 "Hg (Apr 11, 5:30 AM)
Low39 °F (Apr 12, 7:30 AM)20% (Apr 14, 9:00 PM)29.86 "Hg (Apr 18, 2:00 PM)
Average58 °F63%30.13 "Hg
* Reported Apr 10 12:00 Noon — Apr 25 12:00 Noon, Pamplona, Weather by CustomWeather, © 2015

Note: Actual official high and low records may vary slightly from our data, if they occured in-between our weather recording intervals... More about our weather records

Advertising

Pamplona weather history for previous 24 hours

 ConditionsComfort  
Time TempWeatherWind HumidityBarometerVisibility
12:00 PM
Sat, Apr 25
64 °FPassing clouds.6 mph56%29.95 "HgN/A
11:30 AM64 °FPassing clouds.No wind60%29.95 "HgN/A
11:00 AM63 °FSunny.1 mph59%29.95 "Hg10 mi
10:30 AM63 °FSunny.2 mph64%29.95 "Hg10 mi
10:00 AM59 °FSunny.No wind72%29.95 "Hg10 mi
9:30 AM59 °FSunny.No wind77%29.95 "Hg10 mi
9:00 AM59 °FSunny.No wind77%29.95 "Hg10 mi
8:30 AM57 °FSunny.No wind88%29.95 "Hg10 mi
8:00 AM54 °FClear.No wind94%29.92 "Hg10 mi
7:30 AM54 °FClear.No wind94%29.92 "Hg10 mi
7:00 AM54 °FClear.1 mph88%29.92 "Hg10 mi
6:30 AM54 °FClear.1 mph94%29.92 "Hg10 mi
6:00 AM54 °FClear.2 mph94%29.92 "Hg10 mi
5:30 AM54 °FClear.3 mph94%29.92 "Hg10 mi
12:00 AM57 °FPassing clouds.1 mph77%29.92 "HgN/A
11:30 PM
Fri, Apr 24
59 °FPassing clouds.1 mph72%29.92 "HgN/A
11:00 PM59 °FPassing clouds.5 mph72%29.92 "HgN/A
10:30 PM59 °FPassing clouds.7 mph77%29.92 "HgN/A
10:00 PM59 °FPassing clouds.7 mph77%29.92 "HgN/A
9:30 PM63 °FPassing clouds.3 mph64%29.95 "HgN/A
9:00 PM64 °FPassing clouds.10 mph60%29.92 "HgN/A
8:30 PM63 °FPassing clouds.9 mph68%29.92 "HgN/A
8:00 PM66 °FPassing clouds.12 mph52%29.92 "HgN/A
7:30 PM66 °FPassing clouds.7 mph52%29.92 "HgN/A
7:00 PM68 °FPassing clouds.2 mph53%29.92 "HgN/A
6:30 PM70 °FPassing clouds.2 mph46%29.92 "HgN/A
6:00 PM70 °FPassing clouds.2 mph46%29.89 "HgN/A
5:30 PM70 °FPassing clouds.5 mph40%29.92 "HgN/A
5:00 PM70 °FPassing clouds.8 mph43%29.92 "HgN/A
4:30 PM72 °FPassing clouds.5 mph33%29.92 "HgN/A
4:00 PM72 °FSunny.1 mph41%29.92 "Hg10 mi
3:30 PM73 °FSunny.5 mph38%29.95 "Hg10 mi
3:00 PM72 °FPassing clouds.7 mph38%29.95 "HgN/A
2:30 PM72 °FPassing clouds.8 mph44%29.95 "HgN/A
1:30 PM70 °FPassing clouds.3 mph46%29.98 "HgN/A
1:00 PM68 °FSunny.1 mph46%30.01 "Hg10 mi
Weather by CustomWeather, © 2015

See weather overviewHow to use our weather pages